Stations météo

Publicité
Annecy-Meythet, France (7490): Température de l'air & dewpoint: 15.10.2017 19:00:00 - 21.10.2017 19:00:00 (CEST)Annecy-Meythet, France (7490): Température de l'air 5cm: 15.10.2017 19:00:00 - 21.10.2017 19:00:00 (CEST)Annecy-Meythet, France (7490): Température de l'air -20cm & Température de l'air -100cm: 15.10.2017 19:00:00 - 21.10.2017 19:00:00 (CEST)Annecy-Meythet, France (7490): Vitesse du vent & gusts: 15.10.2017 19:00:00 - 21.10.2017 19:00:00 (CEST)Annecy-Meythet, France (7490): Direction du vent: 15.10.2017 19:00:00 - 21.10.2017 19:00:00 (CEST)Annecy-Meythet, France (7490): reduced air pressure: 15.10.2017 19:00:00 - 21.10.2017 19:00:00 (CEST)Annecy-Meythet, France (7490): visibility: 15.10.2017 19:00:00 - 21.10.2017 19:00:00 (CEST)Annecy-Meythet, France (7490): Quantités de précipitations: 15.10.2017 19:00:00 - 21.10.2017 19:00:00 (CEST)
Date & Time tt [°C] td [°C] tt 5cm [°C] tt -20cm [°C] tt -100cm [°C] ff [km/h] ff [knt] fx [km/h] fx [knt] dd ppp [hPa] vv [km] rr [mm]
21.10.2017 19:00:00 13,6 8,2 13,6 14,0 15,0 24 13 60 33 W 1018,5 53 0,0
21.10.2017 18:00:00 19,5 10,8 16,4 13,9 15,0 9 5 21 11 SSE 1015,6 56 0,0
21.10.2017 17:00:00 21,0 10,2 19,5 13,7 15,0 11 6 29 16 SSW 1016,0 48 0,0
21.10.2017 16:00:00 22,0 11,1 21,7 13,4 15,0 11 6 25 14 S 1015,8 29 0,0
21.10.2017 15:00:00 21,6 11,3 21,0 13,0 15,0 14 8 29 15 SSW 1016,8 16 0,0
21.10.2017 14:00:00 20,8 10,6 18,6 12,8 15,0 14 8 23 13 SSW 1017,6 40 0,0
21.10.2017 13:00:00 19,2 10,5 19,4 12,6 15,0 6 4 12 7 SE 1018,3 42 0,0
21.10.2017 12:00:00 17,9 9,8 19,4 12,4 15,0 3 1 5 3 W 1019,1 42 0,0
21.10.2017 11:00:00 16,6 9,8 14,6 12,3 15,0 2 1 10 5 NE 1019,6 20 0,0
21.10.2017 10:00:00 13,0 9,6 9,7 12,3 15,0 6 3 10 6 NNE 1020,4 19 0,0
21.10.2017 09:00:00 10,0 8,4 6,8 12,4 15,0 4 2 10 6 N 1021,0 15 0,0
21.10.2017 08:00:00 8,8 7,4 6,7 12,5 15,0 5 3 9 5 NNE 1020,8 10 0,0
21.10.2017 07:00:00 9,4 7,7 7,3 12,6 15,0 7 4 9 5 N 1020,5 19 0,0
21.10.2017 06:00:00 10,1 8,2 8,0 12,6 15,0 0 0 5 3 N 1019,7 16 0,0
21.10.2017 05:00:00 11,3 9,4 9,6 12,7 15,0 2 1 8 4 NW 1019,5 19 0,0
21.10.2017 04:00:00 12,2 9,8 10,3 12,7 15,0 4 2 6 3 WNW 1019,7 20 0,0
21.10.2017 03:00:00 12,6 9,6 11,2 12,7 15,0 2 1 8 5 NNE 1020,0 27 0,0
21.10.2017 02:00:00 12,6 9,4 11,2 12,7 15,0 3 1 6 3 NW 1020,0 26 0,0
21.10.2017 01:00:00 12,5 9,5 11,1 12,7 15,0 2 1 8 4 NNW 1020,0 20 0,0
21.10.2017 00:00:00 12,5 9,3 11,4 12,8 15,0 3 2 5 3 NNE 1020,0 20 0,0
20.10.2017 23:00:00 13,2 8,9 11,7 12,7 15,0 2 1 8 4 NW 1019,5 27 0,0
20.10.2017 22:00:00 13,3 9,0 11,5 12,7 15,0 3 2 10 6 N 1019,3 20 0,0
20.10.2017 21:00:00 13,3 9,0 11,5 12,7 15,0 4 2 8 5 NNE 1019,1 28 0,0
20.10.2017 20:00:00 14,4 8,8 11,5 12,7 15,0 4 2 10 5 NNW 1018,7 20 0,0
20.10.2017 19:00:00 15,0 8,9 12,5 12,7 15,1 3 2 9 5 NNW 1018,6 30 0,0
20.10.2017 18:00:00 15,5 9,4 14,0 12,6 15,0 5 3 8 4 NNE 1018,5 20 0,0
20.10.2017 17:00:00 15,8 8,5 14,6 12,4 15,0 0 0 6 3 N 1018,6 20 0,0
20.10.2017 16:00:00 16,2 8,2 15,1 12,3 15,0 3 2 9 5 NE 1018,3 37 0,0
20.10.2017 15:00:00 15,5 8,0 14,9 12,1 15,1 0 0 9 5 N 1018,4 20 0,0
20.10.2017 14:00:00 15,9 7,9 15,6 12,0 15,1 2 1 9 5 - 1018,7 10 0,0
20.10.2017 13:00:00 14,8 8,3 13,8 11,8 15,0 2 1 5 3 WNW 1019,0 17 0,0
20.10.2017 12:00:00 13,7 8,1 13,8 11,7 15,1 3 1 4 2 SSE 1019,1 20 0,0
20.10.2017 11:00:00 13,5 7,7 11,9 11,6 15,0 0 0 4 2 N 1018,8 30 0,0
20.10.2017 10:00:00 11,2 6,7 9,4 11,6 15,1 2 1 6 3 NNW 1018,5 19 0,0
20.10.2017 09:00:00 8,5 6,1 4,5 11,6 15,1 4 2 6 4 N 1018,6 16 0,0
20.10.2017 08:00:00 6,4 5,0 4,0 11,8 15,1 4 2 10 5 N 1018,5 18 0,0
20.10.2017 07:00:00 5,8 4,6 3,9 12,0 15,1 2 1 13 7 NNW 1018,4 16 0,0
20.10.2017 06:00:00 7,0 5,3 5,0 12,1 15,1 5 3 13 7 N 1017,6 20 0,0
20.10.2017 05:00:00 7,5 5,3 5,4 12,2 15,1 4 2 8 4 N 1017,6 29 0,0
20.10.2017 04:00:00 8,1 5,7 5,7 12,4 15,1 6 3 9 5 NNE 1017,5 19 0,0
20.10.2017 03:00:00 7,4 5,2 5,6 12,5 15,1 5 3 11 6 NNW 1017,2 10 0,0
20.10.2017 02:00:00 8,9 5,8 7,1 12,7 15,1 11 6 16 9 N 1016,2 30 0,0
20.10.2017 01:00:00 9,1 6,0 7,6 12,9 15,1 14 7 18 10 NNE 1015,6 30 0,0
20.10.2017 00:00:00 9,4 6,1 7,8 13,0 15,1 9 5 15 8 N 1016,0 20 0,0
19.10.2017 23:00:00 9,4 6,3 7,6 13,2 15,1 10 5 12 6 NNE 1016,1 15 0,0
19.10.2017 22:00:00 10,2 7,1 7,9 13,4 15,1 7 4 11 6 NNE 1015,6 19 0,0
19.10.2017 21:00:00 11,7 7,8 8,8 13,5 15,1 8 4 11 6 N 1014,5 18 0,0
19.10.2017 20:00:00 13,0 7,7 9,2 13,6 15,1 4 2 9 5 NNE 1013,7 31 0,0
19.10.2017 19:00:00 15,4 8,2 11,1 13,5 15,1 4 2 9 5 - 1012,8 10 0,0
19.10.2017 18:00:00 19,8 7,5 17,2 13,4 15,1 6 3 11 6 W 1011,6 34 0,0
19.10.2017 17:00:00 21,5 7,7 18,2 13,2 15,1 3 2 9 5 WSW 1011,1 19 0,0
19.10.2017 16:00:00 21,4 9,3 19,9 13,0 15,1 2 1 8 5 N 1010,9 20 0,0
19.10.2017 15:00:00 19,6 8,6 18,1 12,7 15,1 5 3 11 6 E 1011,7 41 0,0
19.10.2017 14:00:00 18,5 8,5 17,6 12,5 15,1 5 3 9 5 SSE 1012,4 18 0,0
19.10.2017 13:00:00 18,8 8,2 19,5 12,2 15,1 4 2 7 4 - 1013,2 10 0,0
19.10.2017 12:00:00 16,9 7,8 20,1 12,0 15,1 0 0 6 3 N 1014,1 29 0,0
19.10.2017 11:00:00 15,3 7,6 14,8 11,9 15,1 3 2 6 4 ESE 1014,8 8 0,0
19.10.2017 10:00:00 12,3 6,3 11,3 11,8 15,1 3 1 9 5 WNW 1015,5 27 0,0
19.10.2017 09:00:00 10,3 6,3 5,4 11,9 15,1 4 2 9 5 N 1015,8 19 0,0
19.10.2017 08:00:00 6,6 4,8 4,7 12,1 15,1 4 2 7 4 NNE 1016,4 19 0,0
19.10.2017 07:00:00 6,6 4,4 4,9 12,2 15,1 0 0 10 5 N 1016,3 20 0,0
19.10.2017 06:00:00 7,8 5,6 5,9 12,4 15,2 5 3 13 7 N 1015,2 29 0,0
19.10.2017 05:00:00 7,9 5,2 5,8 12,5 15,1 4 2 11 6 NNE 1016,0 10 0,0
19.10.2017 04:00:00 8,6 5,5 6,4 12,6 15,2 2 1 10 5 N 1015,9 20 0,0
19.10.2017 03:00:00 8,6 6,2 6,3 12,8 15,1 0 0 9 5 N 1016,2 20 0,0
19.10.2017 02:00:00 8,7 5,8 6,4 12,9 15,2 2 1 9 5 SSE 1016,3 20 0,0
19.10.2017 01:00:00 10,3 6,3 8,3 13,0 15,2 7 4 10 5 NNE 1015,6 20 0,0
19.10.2017 00:00:00 11,5 6,8 10,3 13,1 15,2 6 3 13 7 N 1015,8 39 0,0
18.10.2017 23:00:00 11,7 6,8 9,6 13,2 15,2 5 3 9 5 N 1016,3 20 0,0
18.10.2017 22:00:00 11,4 6,9 8,3 13,3 15,2 7 4 13 7 NNE 1015,7 20 0,0
18.10.2017 21:00:00 11,6 6,9 8,9 13,5 15,2 6 3 16 9 NNE 1015,2 26 0,0
18.10.2017 20:00:00 13,5 7,3 11,2 13,5 15,2 9 5 14 8 NNE 1014,6 43 0,0
18.10.2017 19:00:00 15,3 7,6 11,9 13,5 15,2 7 4 12 7 NNE 1013,9 46 0,0
18.10.2017 18:00:00 19,9 7,3 15,9 13,4 15,2 3 2 8 4 W 1012,9 47 0,0
18.10.2017 17:00:00 21,9 5,7 19,8 13,2 15,2 5 3 12 6 - 1012,7 10 0,0
18.10.2017 16:00:00 22,6 4,6 19,9 12,8 15,2 6 3 14 7 S 1013,0 44 0,0
18.10.2017 15:00:00 22,5 5,4 20,4 12,5 15,2 3 1 9 5 SSW 1013,4 46 0,0
18.10.2017 14:00:00 20,7 5,9 20,2 12,2 15,2 2 1 8 5 WSW 1014,7 44 0,0
18.10.2017 13:00:00 19,3 5,7 20,3 11,9 15,2 3 2 8 4 SSE 1015,9 47 0,0
18.10.2017 12:00:00 17,8 6,9 21,1 11,6 15,2 0 0 7 4 N 1016,7 43 0,0
18.10.2017 11:00:00 15,2 6,2 15,0 11,5 15,2 2 1 8 4 ESE 1017,7 19 0,0
18.10.2017 10:00:00 11,5 6,2 7,8 11,5 15,2 6 3 14 7 NE 1018,9 24 0,0
18.10.2017 09:00:00 8,0 6,1 4,8 11,6 15,2 10 5 18 10 NNE 1019,7 10 0,2
18.10.2017 08:00:00 5,9 4,7 4,4 11,8 15,2 11 6 13 7 NNE 1020,1 8 0,0
18.10.2017 07:00:00 6,3 4,8 3,7 11,9 15,2 7 4 11 6 N 1020,5 11 0,0
18.10.2017 06:00:00 5,7 4,3 3,7 12,2 15,2 3 2 11 6 NW 1020,9 15 0,0
18.10.2017 05:00:00 5,9 4,4 3,9 12,3 15,2 5 3 9 5 N 1021,0 16 0,0
18.10.2017 04:00:00 6,3 4,6 4,2 12,5 15,2 5 3 10 5 N 1021,2 10 0,0
18.10.2017 03:00:00 6,5 4,2 4,7 12,7 15,2 3 2 12 7 NE 1021,4 11 0,0
18.10.2017 02:00:00 7,4 5,4 5,3 12,9 15,2 7 4 9 5 NNE 1021,3 21 0,0
18.10.2017 01:00:00 7,9 5,5 5,6 13,1 15,2 5 3 9 5 N 1021,4 13 0,0
18.10.2017 00:00:00 8,6 6,2 6,7 13,3 15,2 6 4 10 5 NNE 1021,3 19 0,0
17.10.2017 23:00:00 9,7 6,8 7,2 13,4 15,2 6 3 13 7 NNE 1021,3 19 0,0
17.10.2017 22:00:00 10,9 7,4 8,1 13,6 15,2 8 4 12 6 NNE 1020,9 24 0,0
17.10.2017 21:00:00 11,7 7,8 8,8 13,7 15,2 8 4 12 6 N 1020,7 15 0,0
17.10.2017 20:00:00 13,5 7,5 9,3 13,8 15,2 7 4 10 5 N 1020,4 15 0,0
17.10.2017 19:00:00 17,1 8,8 12,8 13,7 15,2 7 4 11 6 WNW 1019,3 35 0,0
17.10.2017 18:00:00 22,6 5,5 17,7 13,6 15,2 5 3 11 6 S 1018,4 50 0,0
17.10.2017 17:00:00 23,0 6,7 20,1 13,3 15,2 6 4 18 10 S 1018,7 35 0,0
17.10.2017 16:00:00 23,0 7,9 21,5 13,0 15,2 11 6 19 10 S 1019,1 60 0,0
17.10.2017 15:00:00 22,9 6,2 21,3 12,7 15,3 7 4 13 7 S 1019,9 38 0,0
17.10.2017 14:00:00 21,8 6,1 21,2 12,3 15,2 3 2 10 5 S 1021,1 46 0,0
17.10.2017 13:00:00 19,5 6,2 21,0 12,0 15,2 4 2 9 5 SSE 1022,7 25 0,0
17.10.2017 12:00:00 17,0 5,0 20,8 11,8 15,2 2 1 5 3 SSE 1024,0 34 0,0
17.10.2017 11:00:00 14,7 6,0 15,6 11,7 15,2 0 0 5 3 N 1025,3 36 0,0
17.10.2017 10:00:00 11,2 5,3 8,5 11,7 15,3 0 0 5 3 N 1026,5 10 0,0
17.10.2017 09:00:00 7,3 5,1 3,2 11,8 15,2 4 2 13 7 N 1027,4 17 0,0
17.10.2017 08:00:00 4,9 3,2 2,8 12,0 15,3 7 4 10 5 NNE 1027,7 10 0,0
17.10.2017 07:00:00 5,5 3,7 2,9 12,2 15,3 4 2 10 6 N 1027,8 18 0,0
17.10.2017 06:00:00 5,2 3,8 2,9 12,4 15,3 0 0 6 4 N 1027,9 16 0,2
17.10.2017 05:00:00 5,8 4,3 3,8 12,6 15,3 4 2 13 7 N 1027,8 19 0,0
17.10.2017 04:00:00 6,6 4,8 4,5 12,8 15,3 5 3 11 6 N 1028,1 16 0,0
17.10.2017 03:00:00 7,6 5,6 5,4 12,9 15,3 8 4 13 7 N 1028,1 29 0,0
17.10.2017 02:00:00 8,0 5,6 5,6 13,2 15,3 7 4 12 6 NNE 1028,2 18 0,0
17.10.2017 01:00:00 8,4 6,0 6,1 13,3 15,3 8 4 12 7 N 1028,3 20 0,0
17.10.2017 00:00:00 9,3 6,6 6,6 13,5 15,3 7 4 13 7 N 1028,1 26 0,0
16.10.2017 23:00:00 9,6 6,9 7,6 13,7 15,3 6 3 11 6 N 1027,9 25 0,0
16.10.2017 22:00:00 10,6 7,5 8,2 13,9 15,3 6 3 10 6 NNE 1027,6 25 0,0
16.10.2017 21:00:00 12,0 8,3 9,2 14,0 15,3 7 4 11 6 NNE 1027,1 27 0,0
16.10.2017 20:00:00 14,6 8,5 10,1 14,1 15,3 6 3 13 7 N 1026,2 38 0,0
16.10.2017 19:00:00 17,2 8,1 12,2 14,1 15,3 3 2 7 4 NNW 1025,3 30 0,0
16.10.2017 18:00:00 23,5 8,0 19,1 13,9 15,3 5 3 9 5 SSW 1023,8 49 0,0
16.10.2017 17:00:00 24,1 6,4 22,0 13,7 15,3 5 3 14 8 SW 1023,8 10 0,0
16.10.2017 16:00:00 24,1 7,3 23,0 13,4 15,3 7 4 14 8 WSW 1024,1 41 0,0
16.10.2017 15:00:00 23,6 8,4 21,9 13,0 15,3 6 4 16 9 S 1024,5 23 0,0
16.10.2017 14:00:00 22,9 8,6 21,8 12,7 15,3 0 0 9 5 N 1025,3 50 0,0
16.10.2017 13:00:00 20,8 7,4 22,1 12,3 15,3 3 2 9 5 SSE 1026,5 45 0,0
16.10.2017 12:00:00 18,7 9,5 22,6 12,1 15,3 0 0 8 4 N 1027,2 20 0,0
16.10.2017 11:00:00 15,8 8,3 16,9 11,9 15,3 2 1 5 3 ESE 1028,0 34 0,0
16.10.2017 10:00:00 12,3 7,0 9,2 11,9 15,3 0 0 5 3 N 1028,8 19 0,0
16.10.2017 09:00:00 8,3 6,4 3,7 12,0 15,3 3 2 7 4 N 1029,3 25 0,0
16.10.2017 08:00:00 5,8 4,6 3,8 12,2 15,3 3 2 10 6 NNE 1029,3 20 0,0
16.10.2017 07:00:00 6,2 5,2 3,8 12,4 15,3 3 2 8 5 N 1029,2 20 0,0
16.10.2017 06:00:00 6,6 5,5 4,4 12,6 15,3 3 1 7 4 NNW 1029,2 19 0,0
16.10.2017 05:00:00 7,2 5,8 5,2 12,8 15,3 3 1 9 5 NE 1029,0 28 0,0
16.10.2017 04:00:00 7,7 6,0 6,1 13,0 15,3 9 5 13 7 NNE 1029,2 31 0,0
16.10.2017 03:00:00 8,1 6,4 6,0 13,2 15,3 6 4 10 6 N 1029,6 32 0,0
16.10.2017 02:00:00 8,8 6,8 6,6 13,3 15,4 6 3 10 5 N 1029,5 35 0,0
16.10.2017 01:00:00 9,1 7,0 7,4 13,5 15,3 9 5 12 7 NNE 1029,6 31 0,0
16.10.2017 00:00:00 9,4 7,3 7,6 13,7 15,3 6 3 10 5 N 1029,5 32 0,0
15.10.2017 23:00:00 10,4 7,8 8,6 13,8 15,3 7 4 10 5 NNE 1029,2 30 0,0
15.10.2017 22:00:00 11,7 8,7 9,0 13,9 15,3 7 4 9 5 N 1028,6 32 0,0
15.10.2017 21:00:00 12,5 9,0 9,5 14,1 15,4 8 4 10 5 NNE 1027,9 33 0,0
15.10.2017 20:00:00 14,5 9,7 11,3 14,1 15,3 8 4 12 7 NNE 1027,3 38 0,0
15.10.2017 19:00:00 16,9 9,8 13,7 14,1 15,4 9 5 11 6 NNE 1026,1 35 0,0

tt = Température de l'air
td = dewpoint
tt 5cm = Température de l'air 5cm
tt -20cm = Température de l'air -20cm
tt -100cm = Température de l'air -100cm
ff = Vitesse du vent
fx = gusts
dd = Direction du vent
ppp = reduced air pressure
vv = visibility
rr = Quantités de précipitations

stations d'obs. à proximité